TimeCDT,TemperatureF,Dew PointF,Humidity,Sea Level PressureIn,VisibilityMPH,Wind Direction,Wind SpeedMPH,Gust SpeedMPH,PrecipitationIn,Events,Conditions,WindDirDegrees,DateUTC
12:54 AM,45.0,36.0,71,29.90,10.0,NNW,10.4,-,N/A,,Clear,330,2012-11-02 05:54:00
1:54 AM,39.9,34.0,79,29.92,10.0,North,11.5,-,N/A,,Clear,350,2012-11-02 06:54:00
2:54 AM,36.0,32.0,86,29.95,10.0,NNE,8.1,-,N/A,,Clear,20,2012-11-02 07:54:00
3:54 AM,37.0,32.0,82,29.96,10.0,North,9.2,-,N/A,,Clear,10,2012-11-02 08:54:00
4:54 AM,35.1,30.0,82,29.98,10.0,North,6.9,-,N/A,,Clear,10,2012-11-02 09:54:00
5:54 AM,34.0,30.0,85,30.01,10.0,NNW,8.1,-,N/A,,Clear,340,2012-11-02 10:54:00
6:54 AM,35.1,30.0,82,30.02,10.0,North,9.2,-,N/A,,Clear,10,2012-11-02 11:54:00
7:54 AM,35.1,30.9,85,30.05,10.0,NNE,10.4,-,N/A,,Clear,20,2012-11-02 12:54:00
8:54 AM,39.0,33.1,79,30.08,10.0,NNE,9.2,-,N/A,,Clear,20,2012-11-02 13:54:00
9:54 AM,43.0,35.1,74,30.09,10.0,NNE,9.2,-,N/A,,Clear,30,2012-11-02 14:54:00
10:54 AM,46.0,34.0,63,30.11,10.0,ENE,5.8,-,N/A,,Clear,60,2012-11-02 15:54:00
11:54 AM,48.9,33.1,54,30.10,10.0,Variable,5.8,-,N/A,,Clear,0,2012-11-02 16:54:00
12:54 PM,50.0,33.1,52,30.09,10.0,Variable,3.5,-,N/A,,Clear,0,2012-11-02 17:54:00
1:54 PM,51.1,32.0,48,30.08,10.0,North,4.6,-,N/A,,Clear,10,2012-11-02 18:54:00
2:54 PM,52.0,32.0,47,30.08,10.0,NNW,3.5,-,N/A,,Clear,330,2012-11-02 19:54:00
3:54 PM,51.1,33.1,50,30.07,10.0,North,5.8,-,N/A,,Clear,360,2012-11-02 20:54:00
4:54 PM,51.1,33.1,50,30.07,10.0,NNE,6.9,-,N/A,,Clear,30,2012-11-02 21:54:00
5:54 PM,45.0,33.1,63,30.08,10.0,ENE,6.9,-,N/A,,Clear,70,2012-11-02 22:54:00
6:54 PM,39.9,33.1,77,30.10,10.0,NE,5.8,-,N/A,,Clear,40,2012-11-02 23:54:00
7:54 PM,37.9,32.0,79,30.09,10.0,ENE,6.9,-,N/A,,Clear,70,2012-11-03 00:54:00
8:54 PM,37.9,32.0,79,30.11,10.0,NE,5.8,-,N/A,,Clear,50,2012-11-03 01:54:00
9:54 PM,36.0,32.0,86,30.11,10.0,NE,5.8,-,N/A,,Clear,50,2012-11-03 02:54:00
10:54 PM,39.9,33.1,77,30.12,10.0,ENE,9.2,-,N/A,,Clear,60,2012-11-03 03:54:00
11:54 PM,39.0,34.0,82,30.12,10.0,East,8.1,-,N/A,,Clear,90,2012-11-03 04:54:00